Change the Weather History Date:

Thursday, January 24, 2013

  Actual Average Record
Temperature  
Mean Temperature 68 °F -  
Max Temperature 77 °F 73 °F 77 °F (2013)
Min Temperature 58 °F 57 °F 50 °F (2009)
Cooling Degree Days 2    
Growing Degree Days 18 (Base 50)    
Moisture  
Dew Point 54 °F    
Average Humidity 66    
Maximum Humidity 94    
Minimum Humidity 24    
Precipitation  
Precipitation 0.00 in 0.02 in - ()
Sea Level Pressure  
Sea Level Pressure 30.10 in    
Wind  
Wind Speed 4 mph ()    
Max Wind Speed 12 mph    
Max Gust Speed -    
Visibility 3.5 miles    
Events Fog    
Averages and records for this station are not official NWS values.
T = Trace of Precipitation, MM = Missing Value Source: Averaged Metar Reports

Daily Weather History Graph

Daily Weather History Graph

Search for Another Location

Airport or City:

Trip Planner

Search our weather history database for the weather conditions in past years. The results will help you decide how hot, cold, wet, or windy it might be!

Date:

Astronomy

Jan. 24, 2013 Rise Set
Actual Time 6:19 AM AST 5:12 PM AST
Civil Twilight 5:55 AM AST 5:36 PM AST
Nautical Twilight 5:27 AM AST 6:04 PM AST
Astronomical Twilight 5:00 AM AST 6:31 PM AST
Moon 2:57 PM AST (1/24) 3:55 AM AST (1/24)
Length of Visible Light 11h 41m
Length of Day
10h 52m
Waxing Gibbous, 93% of the Moon is Illuminated
Jan 24
Waxing Gibbous
Jan 27
Full
Feb 3
Last Quarter
Feb 10
New
Feb 17
First Quarter

Hourly Weather History & Observations

Time (AST) Temp. Dew Point Humidity Pressure Visibility Wind Dir Wind Speed Gust Speed Precip Events Conditions
12:00 AM 64.4 °F 59.0 °F 83% 30.12 in - Variable 1.2 mph - N/A   Clear
12:30 AM 64.4 °F 60.8 °F 88% 30.12 in - Variable 2.3 mph - N/A   Clear
1:00 AM 62.6 °F 60.8 °F 94% 30.12 in 5.6 mi Variable 1.2 mph - N/A   Unknown
1:30 AM 62.6 °F 59.0 °F 88% 30.12 in 4.3 mi SSW 3.5 mph - N/A   Unknown
2:00 AM 62.6 °F 60.8 °F 94% 30.12 in 0.1 mi SSW 4.6 mph - N/A Fog Fog
2:30 AM 60.8 °F 59.0 °F 94% 30.09 in 1.2 mi SSW 4.6 mph - N/A Fog Fog
3:00 AM 60 °F 58 °F 92% 30.12 in 1 mi 2.3 mph - - Fog Partial Fog
3:00 AM 60.8 °F 59.0 °F 94% 30.09 in 0.6 mi Variable 2.3 mph - N/A Fog Fog
4:00 AM 59.0 °F 57.2 °F 94% 30.09 in - Calm Calm - N/A   Clear
4:30 AM 59.0 °F 55.4 °F 88% 30.09 in - Calm Calm - N/A   Clear
5:00 AM 59.0 °F 57.2 °F 94% 30.09 in - Variable 2.3 mph - N/A   Clear
6:00 AM 60.8 °F 55.4 °F 82% 30.09 in - Variable 2.3 mph - N/A   Clear
6:30 AM 60.8 °F 57.2 °F 88% 30.12 in 3.7 mi Variable 2.3 mph - N/A   Unknown
7:00 AM 60.8 °F 57.2 °F 88% 30.12 in 3.7 mi SSW 3.5 mph - N/A   Unknown
7:30 AM 62.6 °F 57.2 °F 82% 30.12 in 3.7 mi SSW 3.5 mph - N/A   Unknown
8:00 AM 62.6 °F 59.0 °F 88% 30.12 in 3.1 mi SSW 3.5 mph - N/A   Haze
8:30 AM 64.4 °F 59.0 °F 83% 30.15 in 3.7 mi SSW 3.5 mph - N/A   Unknown
9:00 AM 67 °F 58 °F 65% 30.17 in 5 mi SSW 4.6 mph - -   Haze
9:00 AM 68.0 °F 57.2 °F 68% 30.15 in 5.0 mi SSW 4.6 mph - N/A   Unknown
9:30 AM 68.0 °F 55.4 °F 64% 30.15 in - SSW 5.8 mph - N/A   Clear
10:00 AM 69.8 °F 55.4 °F 60% 30.15 in - South 5.8 mph - N/A   Clear
11:00 AM 73.4 °F 50.0 °F 44% 30.15 in - South 5.8 mph - N/A   Clear
11:30 AM 75.2 °F 50.0 °F 41% 30.12 in - South 5.8 mph - N/A   Clear
12:00 PM 77.0 °F 44.6 °F 32% 30.12 in - South 6.9 mph - N/A   Clear
12:30 PM 77.0 °F 46.4 °F 34% 30.09 in - SSE 6.9 mph - N/A   Clear
1:00 PM 77.0 °F 44.6 °F 32% 30.09 in - SE 6.9 mph - N/A   Clear
1:30 PM 77.0 °F 44.6 °F 32% 30.09 in - SE 10.4 mph - N/A   Clear
2:00 PM 75.2 °F 48.2 °F 38% 30.06 in - SE 11.5 mph - N/A   Clear
2:30 PM 75.2 °F 46.4 °F 36% 30.06 in - SE 11.5 mph - N/A   Clear
3:00 PM 74 °F 45 °F 24% 30.09 in 6 mi SE 11.5 mph - -  
3:00 PM 75.2 °F 44.6 °F 34% 30.06 in - SE 11.5 mph - N/A   Clear
4:00 PM 71.6 °F 48.2 °F 43% 30.06 in - SE 10.4 mph - N/A   Clear
4:30 PM 71.6 °F 50.0 °F 46% 30.06 in - SE 10.4 mph - N/A   Clear
5:00 PM 69.8 °F 53.6 °F 56% 30.06 in - SE 8.1 mph - N/A   Clear
5:30 PM 68.0 °F 53.6 °F 60% 30.06 in - SE 8.1 mph - N/A   Clear
6:00 PM 68.0 °F 55.4 °F 64% 30.09 in - SE 5.8 mph - N/A   Clear
7:00 PM 68.0 °F 59.0 °F 73% 30.09 in - SE 6.9 mph - N/A   Clear
8:00 PM 68.0 °F 57.2 °F 68% 30.09 in - SSE 6.9 mph - N/A   Clear
9:00 PM 68 °F 58 °F 61% 30.12 in 6 mi SSE 8.1 mph - -  
9:00 PM 68.0 °F 57.2 °F 68% 30.09 in - SSE 8.1 mph - N/A   Clear
9:30 PM 68.0 °F 55.4 °F 64% 30.09 in - SSE 8.1 mph - N/A   Clear
10:00 PM 68.0 °F 55.4 °F 64% 30.09 in - South 5.8 mph - N/A   Clear
10:30 PM 68.0 °F 55.4 °F 64% 30.09 in - South 5.8 mph - N/A   Clear
11:00 PM 66.2 °F 55.4 °F 68% 30.09 in - South 6.9 mph - N/A   Clear
11:30 PM 66.2 °F 55.4 °F 68% 30.09 in - South 6.9 mph - N/A   Clear